Weather History for KCBF - January, 2013

Change the Weather History Date:

Monday, January 7, 2013

  Actual Average Record
Temperature  
Mean Temperature 34 °F -  
Max Temperature 39 °F 32 °F 64 °F (2003)
Min Temperature 28 °F 17 °F -4 °F (2014)
Degree Days  
Heating Degree Days 30    
Moisture  
Dew Point 25 °F    
Average Humidity 67    
Maximum Humidity 86    
Minimum Humidity 56    
Precipitation  
Precipitation 0.00 in - - ()
Sea Level Pressure  
Sea Level Pressure 30.01 in    
Wind  
Wind Speed 12 mph (SSW)    
Max Wind Speed 23 mph    
Max Gust Speed 38 mph    
Visibility 10 miles    
Events      
Averages and records for this station are not official NWS values.
T = Trace of Precipitation, MM = Missing Value Source: NWS Daily Summary

Daily Weather History Graph

Daily Weather History Graph

Search for Another Location

Airport or City:

Trip Planner

Search our weather history database for the weather conditions in past years. The results will help you decide how hot, cold, wet, or windy it might be!

Date:

Astronomy

Jan. 07, 2013 Rise Set
Actual Time 7:48 AM CST 5:10 PM CST
Civil Twilight 7:17 AM CST 5:41 PM CST
Nautical Twilight 6:43 AM CST 6:15 PM CST
Astronomical Twilight 6:10 AM CST 6:49 PM CST
Moon 3:12 AM CST (1/7) 1:22 PM CST (1/7)
Length of Visible Light 10h 23m
Length of Day
9h 21m
Waning Crescent, 22% of the Moon is Illuminated
Jan 7
Waning Crescent
Jan 11
New
Jan 18
First Quarter
Jan 26
Full
Feb 3
Last Quarter

Hourly Weather History & Observations

Time (CST) Temp. Windchill Dew Point Humidity Pressure Visibility Wind Dir Wind Speed Gust Speed Precip Events Conditions
12:15 AM 32.0 °F 23.6 °F 23.0 °F 69% 30.12 in 10.0 mi South 10.4 mph - N/A   Clear
12:35 AM 32.0 °F 23.6 °F 23.0 °F 69% 30.11 in 10.0 mi South 10.4 mph 17.3 mph N/A   Clear
12:55 AM 32.0 °F 22.5 °F 23.0 °F 69% 30.10 in 10.0 mi South 12.7 mph - N/A   Clear
1:15 AM 32.0 °F 23.0 °F 21.2 °F 64% 30.10 in 10.0 mi South 11.5 mph - N/A   Clear
1:35 AM 33.8 °F 23.2 °F 21.2 °F 60% 30.09 in 10.0 mi SSW 17.3 mph 25.3 mph N/A   Clear
1:55 AM 33.8 °F 23.2 °F 21.2 °F 60% 30.08 in 10.0 mi South 17.3 mph - N/A   Unknown
2:15 AM 33.8 °F 23.5 °F 21.2 °F 60% 30.08 in 10.0 mi SSW 16.1 mph 24.2 mph N/A   Unknown
2:35 AM 33.8 °F 22.5 °F 21.2 °F 60% 30.08 in 10.0 mi SSW 19.6 mph 25.3 mph N/A   Unknown
2:55 AM 33.8 °F 22.5 °F 23.0 °F 65% 30.07 in 10.0 mi SSW 19.6 mph 26.5 mph N/A   Unknown
3:15 AM 33.8 °F 21.6 °F 23.0 °F 65% 30.06 in 10.0 mi SSW 23.0 mph 31.1 mph N/A   Clear
3:35 AM 33.8 °F 21.9 °F 21.2 °F 60% 30.06 in 10.0 mi SSW 21.9 mph 28.8 mph N/A   Clear
3:55 AM 33.8 °F 21.6 °F 21.2 °F 60% 30.05 in 10.0 mi SSW 23.0 mph 32.2 mph N/A   Clear
4:15 AM 33.8 °F 22.2 °F 21.2 °F 60% 30.05 in 10.0 mi South 20.7 mph 29.9 mph N/A   Clear
4:35 AM 33.8 °F 22.8 °F 21.2 °F 60% 30.04 in 10.0 mi South 18.4 mph 26.5 mph N/A   Clear
4:55 AM 33.8 °F 22.2 °F 21.2 °F 60% 30.03 in 10.0 mi South 20.7 mph 29.9 mph N/A   Unknown
5:15 AM 35.6 °F 24.8 °F 21.2 °F 56% 30.02 in 10.0 mi South 19.6 mph 29.9 mph N/A   Unknown
5:35 AM 35.6 °F 24.0 °F 23.0 °F 60% 30.01 in 10.0 mi South 23.0 mph 38.0 mph N/A   Unknown
6:35 AM 33.8 °F 22.2 °F 21.2 °F 60% 30.01 in 10.0 mi SSW 20.7 mph 27.6 mph N/A   Clear
6:55 AM 33.8 °F 22.2 °F 21.2 °F 60% 30.01 in 10.0 mi SSW 20.7 mph 28.8 mph N/A   Clear
7:15 AM 32.0 °F 20.8 °F 21.2 °F 64% 30.01 in 10.0 mi South 17.3 mph - N/A   Clear
7:35 AM 32.0 °F 21.2 °F 21.2 °F 64% 30.01 in 10.0 mi SSW 16.1 mph - N/A   Clear
7:55 AM 32.0 °F 22.1 °F 21.2 °F 64% 30.01 in 10.0 mi SSW 13.8 mph 19.6 mph N/A   Clear
8:15 AM 32.0 °F 21.2 °F 23.0 °F 69% 30.00 in 10.0 mi South 16.1 mph - N/A   Clear
8:35 AM 33.8 °F 24.8 °F 23.0 °F 65% 30.02 in 10.0 mi SSW 12.7 mph - N/A   Clear
8:55 AM 33.8 °F 24.3 °F 23.0 °F 65% 30.02 in 10.0 mi South 13.8 mph - N/A   Clear
9:15 AM 33.8 °F 24.3 °F 23.0 °F 65% 30.01 in 10.0 mi South 13.8 mph - N/A   Clear
9:35 AM 33.8 °F 24.3 °F 23.0 °F 65% 30.02 in 10.0 mi SSW 13.8 mph 19.6 mph N/A   Clear
9:55 AM 35.6 °F 27.1 °F 23.0 °F 60% 30.02 in 10.0 mi SSW 12.7 mph - N/A   Clear
10:15 AM 33.8 °F 24.8 °F 24.8 °F 70% 30.03 in 10.0 mi SSW 12.7 mph 20.7 mph N/A   Clear
10:35 AM 35.6 °F 27.5 °F 24.8 °F 65% 30.04 in 10.0 mi SW 11.5 mph - N/A   Clear
10:55 AM 35.6 °F 28.0 °F 24.8 °F 65% 30.03 in 10.0 mi SSW 10.4 mph - N/A   Clear
11:15 AM 35.6 °F 28.0 °F 24.8 °F 65% 30.03 in 10.0 mi SSW 10.4 mph - N/A   Clear
11:35 AM 37.4 °F 30.3 °F 26.6 °F 65% 30.02 in 10.0 mi SW 10.4 mph - N/A   Clear
11:55 AM 37.4 °F 29.8 °F 26.6 °F 65% 30.01 in 10.0 mi SW 11.5 mph - N/A   Clear
12:15 PM 37.4 °F 30.3 °F 26.6 °F 65% 29.99 in 10.0 mi SSW 10.4 mph 17.3 mph N/A   Clear
12:35 PM 39.2 °F 33.0 °F 26.6 °F 61% 29.98 in 10.0 mi SW 9.2 mph 16.1 mph N/A   Clear
1:15 PM 39.2 °F 30.2 °F 26.6 °F 61% 29.97 in 10.0 mi SW 17.3 mph - N/A   Clear
1:35 PM 39.2 °F 31.6 °F 26.6 °F 61% 29.97 in 10.0 mi WSW 12.7 mph 18.4 mph N/A   Clear
1:55 PM 39.2 °F 31.6 °F 26.6 °F 61% 29.98 in 10.0 mi WSW 12.7 mph 19.6 mph N/A   Clear
2:15 PM 39.2 °F 31.6 °F 26.6 °F 61% 29.98 in 10.0 mi WSW 12.7 mph - N/A   Clear
2:55 PM 39.2 °F 34.2 °F 26.6 °F 61% 29.98 in 10.0 mi West 6.9 mph - N/A   Clear
3:15 PM 39.2 °F 33.6 °F 26.6 °F 61% 29.98 in 10.0 mi WSW 8.1 mph - N/A   Clear
3:35 PM 39.2 °F 35.0 °F 26.6 °F 61% 29.99 in 10.0 mi WSW 5.8 mph - N/A   Clear
3:55 PM 37.4 °F 31.4 °F 28.4 °F 70% 29.99 in 10.0 mi WSW 8.1 mph - N/A   Clear
4:15 PM 37.4 °F 33.8 °F 28.4 °F 70% 29.99 in 10.0 mi SW 4.6 mph - N/A   Clear
4:35 PM 37.4 °F 34.9 °F 26.6 °F 65% 29.98 in 10.0 mi SW 3.5 mph - N/A   Clear
5:15 PM 37.4 °F - 26.6 °F 65% 29.97 in 10.0 mi Calm Calm - N/A   Clear
5:35 PM 35.6 °F - 26.6 °F 70% 29.97 in 10.0 mi Calm Calm - N/A   Clear
5:55 PM 35.6 °F - 26.6 °F 70% 29.98 in 10.0 mi Calm Calm - N/A   Clear
6:15 PM 35.6 °F - 26.6 °F 70% 29.99 in 10.0 mi Calm Calm - N/A   Clear
6:35 PM 35.6 °F - 26.6 °F 70% 29.99 in 10.0 mi Calm Calm - N/A   Clear
6:55 PM 33.8 °F - 26.6 °F 75% 29.99 in 10.0 mi Calm Calm - N/A   Unknown
7:15 PM 33.8 °F - 26.6 °F 75% 29.99 in 10.0 mi Calm Calm - N/A   Unknown
7:35 PM 32.0 °F - 26.6 °F 80% 29.98 in 10.0 mi Calm Calm - N/A   Unknown
7:55 PM 33.8 °F - 26.6 °F 75% 29.98 in 10.0 mi Calm Calm - N/A   Clear
8:15 PM 33.8 °F - 26.6 °F 75% 29.98 in 10.0 mi Calm Calm - N/A   Clear
8:35 PM 32.0 °F 28.7 °F 26.6 °F 80% 29.98 in 10.0 mi ESE 3.5 mph - N/A   Clear
8:55 PM 32.0 °F - 26.6 °F 80% 29.98 in 10.0 mi Calm Calm - N/A   Clear
9:35 PM 32.0 °F 27.5 °F 26.6 °F 80% 29.97 in 10.0 mi East 4.6 mph - N/A   Clear
9:55 PM 32.0 °F 28.7 °F 26.6 °F 80% 29.97 in 10.0 mi East 3.5 mph - N/A   Unknown
10:15 PM 32.0 °F 26.4 °F 26.6 °F 80% 29.96 in 10.0 mi ESE 5.8 mph - N/A   Unknown
10:35 PM 32.0 °F 27.5 °F 26.6 °F 80% 29.95 in 10.0 mi East 4.6 mph - N/A   Unknown
10:55 PM 30.2 °F 24.3 °F 24.8 °F 80% 29.95 in 10.0 mi East 5.8 mph - N/A   Unknown
11:15 PM 30.2 °F 24.3 °F 26.6 °F 86% 29.95 in 10.0 mi East 5.8 mph - N/A   Clear
11:35 PM 30.2 °F 23.4 °F 26.6 °F 86% 29.94 in 10.0 mi ESE 6.9 mph - N/A   Unknown
11:55 PM 28.4 °F 20.4 °F 24.8 °F 86% 29.93 in 10.0 mi ESE 8.1 mph - N/A   Clear